Temp
63 63 62 62 62 62 62 62 61 61 61 61 61 61 61 61 61 81 81 79 79 69 69 86 86 86 86 83 84 84 73 70 71 70 73 80 77 82 87 84 86 86 84 84 83
63 63 63 62 61 61 61 61 60 61 61 60 60 60 60 59 75 79 73 70 69 70 85 82 81 83 82 80 81 78 72 73 77 78 76 78 79 79 80 83 83 84 84 83 80
63 63 63 62 62 61 61 61 60 60 61 60 60 60 60 65 74 79 70 70 69 75 85 84 82 80 77 80 79 78 72 78 77 79 81 78 79 83 80 79 83 83 86 86 81
62 62 62 62 62 61 60 60 60 60 60 60 60 60 60 75 64 83 70 70 69 84 84 81 80 75 74 72 80 70 77 78 79 79 78 77 81 77 80 83 89 89 87 88 85
61 61 61 62 62 61 60 59 60 60 60 60 60 60 70 69 73 83 70 72 84 83 81 79 75 75 71 74 75 71 75 76 79 77 78 79 76 77 79 86 89 89 86 86 88
60 60 60 61 61 61 60 59 59 59 59 60 60 60 68 59 83 84 82 80 83 80 79 80 77 78 73 72 71 73 74 75 77 77 79 75 76 75 80 83 83 82 84 86 86
60 60 60 60 60 60 60 59 58 58 59 60 60 67 62 64 79 82 78 79 81 79 76 82 81 75 74 70 74 73 68 74 75 77 75 77 71 73 81 80 79 79 81 82 82
60 59 59 59 59 59 59 58 58 58 59 59 60 65 60 76 80 76 80 78 81 80 79 80 81 76 71 74 70 67 67 65 74 73 75 73 69 77 79 79 79 76 78 77 77
58 59 58 58 58 58 58 57 57 58 58 59 59 63 59 71 67 77 80 74 79 76 77 78 77 72 70 65 64 66 61 64 67 73 74 72 70 79 81 77 77 76 76 75 75
57 58 58 57 57 57 56 57 57 57 57 61 62 57 64 63 71 75 80 79 74 72 70 70 70 65 66 64 55 61 61 61 64 70 70 70 70 77 81 79 76 75 75 74 72
57 57 57 57 57 57 56 53 50 48 51 52 57 61 65 72 74 73 76 74 74 71 64 67 62 59 61 64 68 63 62 62 67 70 66 67 69 74 79 78 75 74 73 72 70
57 57 57 57 57 56 61 54 57 66 52 55 60 64 70 68 62 69 76 68 66 62 68 61 58 68 69 68 64 62 59 60 67 68 65 66 66 73 76 77 77 74 71 70 70
57 57 57 56 56 55 55 59 71 71 55 60 60 61 64 68 61 67 71 70 65 63 63 61 66 70 63 60 59 61 59 60 61 65 67 64 62 69 69 67 67 69 70 71 70
56 56 55 55 52 55 54 64 67 66 42 54 57 60 64 66 59 72 74 70 65 62 64 63 70 63 60 59 61 56 65 62 61 59 55 63 54 66 63 62 63 64 66 66 66
55 56 55 54 54 52 58 65 58 53 27 54 61 73 67 59 66 64 73 68 60 61 62 59 60 60 57 59 61 59 63 61 60 57 58 59 54 64 70 59 61 63 64 65 66
55 55 55 53 53 58 60 59 52 33 28 49 59 55 56 57 62 65 64 68 69 62 61 62 67 65 64 64 62 63 59 57 57 57 47 56 57 60 66 64 62 63 63 63 64
54 54 54 54 50 58 57 52 35 30 50 49 47 52 55 52 54 58 56 53 53 47 49 55 55 61 62 57 61 60 55 47 45 44 46 59 56 60 60 66 64 61 61 61 63
53 53 55 53 55 57 53 43 30 36 43 57 54 54 51 54 53 55 54 52 58 59 58 49 46 57 61 59 53 53 54 46 36 44 51 55 48 60 60 64 66 63 62 61 61
53 53 52 56 54 52 48 34 34 41 51 50 51 44 47 51 53 53 54 54 57 59 52 52 51 59 62 63 62 51 49 57 44 47 43 54 56 55 57 56 58 59 59 59 60
49 47 50 58 57 46 42 36 36 51 55 53 43 48 43 49 50 50 51 58 56 60 63 57 46 54 57 60 63 54 58 38 38 33 36 50 53 57 50 52 56 56 58 58 59
46 38 52 59 52 41 31 37 41 52 58 52 50 47 52 50 52 48 52 55 60 57 60 58 53 47 53 52 53 52 46 48 48 45 39 42 53 56 57 57 55 57 57 58 59
44 31 55 55 35 37 33 42 49 50 59 56 58 56 53 52 50 49 52 56 60 58 51 58 52 45 48 54 56 61 53 51 37 34 42 44 46 56 61 60 58 55 54 57 58
37 38 51 50 27 32 41 40 48 50 54 54 54 58 57 52 44 51 54 55 58 56 53 54 44 37 40 46 51 48 52 55 52 47 41 37 41 54 57 55 55 54 55 56 57
37 28 34 40 44 37 38 37 38 54 55 57 55 58 52 49 52 47 49 48 54 56 51 56 50 46 43 48 51 43 48 51 50 38 43 45 48 46 49 49 52 54 55 56 56
38 32 40 30 32 38 40 40 36 39 51 56 52 53 50 43 46 46 52 44 49 49 51 52 42 46 48 48 49 50 48 49 46 47 43 49 51 53 51 53 56 55 54 54 55
33 33 37 42 42 35 36 37 37 42 45 45 47 52 54 46 48 45 48 42 41 46 46 50 39 44 41 46 43 42 48 49 50 51 52 53 52 61 60 55 53 52 53 52 53
43 45 40 39 41 33 35 37 39 47 49 54 54 51 48 51 54 53 53 50 49 44 42 38 37 36 32 39 38 32 42 45 46 51 51 45 53 58 51 51 51 52 52 52 53
MSLP
1015.18 1015.48 1015.70 1015.83 1016.08 1015.87 1016.17 1016.22 1016.28 1016.33 1015.87 1015.94 1015.70 1015.41 1014.86 1014.11 1013.07 1012.46 1011.07 1011.38 1011.21 1011.46 1011.38 1010.70 1010.38 1010.01 1009.83 1009.12 1009.07 1008.77 1007.61 1006.27 1006.27 1006.63 1006.34 1007.13 1006.99 1007.09 1006.91 1006.25 1006.11 1006.31 1006.65 1007.64 1008.51
1014.56 1014.83 1014.96 1015.34 1015.53 1015.83 1015.70 1015.99 1016.08 1016.04 1015.67 1015.64 1015.67 1015.22 1014.79 1014.36 1012.89 1011.39 1011.25 1011.23 1011.49 1011.22 1010.57 1010.09 1009.70 1009.78 1009.09 1008.90 1008.69 1008.13 1006.96 1006.08 1006.63 1006.76 1006.78 1006.89 1007.10 1007.01 1006.63 1005.80 1005.70 1006.12 1007.09 1007.77 1008.53
1013.88 1014.05 1014.42 1014.52 1014.88 1015.21 1015.46 1015.46 1015.79 1015.79 1015.75 1015.46 1015.38 1015.13 1014.74 1014.12 1012.22 1010.28 1010.90 1011.18 1011.48 1011.16 1010.30 1010.15 1009.90 1009.73 1008.98 1008.71 1008.35 1007.74 1006.93 1006.36 1007.01 1007.12 1007.03 1007.05 1007.02 1006.78 1006.35 1005.51 1005.46 1005.74 1006.18 1006.95 1007.83
1013.08 1013.35 1013.72 1013.98 1014.19 1014.67 1015.04 1015.12 1015.46 1015.50 1015.55 1015.44 1015.33 1014.99 1014.55 1013.64 1011.13 1010.14 1010.92 1011.00 1011.22 1010.76 1010.13 1009.76 1009.57 1009.17 1008.81 1008.35 1008.05 1008.10 1007.45 1007.18 1006.93 1007.17 1007.33 1007.05 1006.94 1006.79 1006.29 1005.62 1005.57 1005.75 1006.40 1006.60 1006.91
1012.46 1012.53 1012.71 1013.30 1013.47 1013.97 1014.38 1014.69 1015.06 1015.23 1015.34 1015.31 1015.34 1015.00 1014.19 1012.66 1010.53 1010.40 1010.99 1010.83 1010.62 1010.34 1009.94 1009.47 1009.25 1009.02 1008.57 1008.43 1008.50 1008.14 1007.38 1007.50 1007.43 1007.47 1007.31 1007.32 1007.08 1006.65 1006.07 1005.76 1005.66 1005.85 1006.23 1006.24 1006.32
1011.53 1011.94 1012.19 1012.45 1012.92 1013.29 1013.73 1014.14 1014.45 1014.98 1015.09 1015.13 1015.34 1014.98 1014.06 1012.12 1009.92 1010.28 1010.50 1010.51 1010.05 1010.11 1009.97 1009.73 1008.99 1009.24 1009.10 1008.86 1008.65 1008.19 1007.93 1007.47 1007.41 1007.17 1006.95 1006.85 1006.43 1006.66 1005.68 1005.94 1005.72 1006.03 1005.89 1006.02 1006.22
1010.61 1010.92 1011.27 1011.85 1012.20 1012.65 1013.19 1013.79 1013.88 1014.65 1014.82 1014.91 1015.06 1014.64 1013.69 1010.91 1010.19 1010.32 1010.59 1010.32 1010.14 1010.14 1009.92 1009.75 1009.56 1009.36 1009.35 1008.84 1008.97 1008.63 1008.07 1007.17 1006.82 1006.64 1006.44 1006.42 1005.84 1005.44 1005.61 1006.15 1005.97 1006.15 1006.34 1006.60 1006.93
1009.57 1009.95 1010.36 1010.81 1011.48 1012.13 1012.55 1013.26 1013.64 1014.40 1014.71 1014.78 1014.96 1014.53 1012.18 1010.46 1010.37 1010.21 1010.06 1009.88 1009.88 1010.12 1009.88 1010.09 1010.04 1009.50 1009.49 1009.24 1009.01 1008.55 1007.95 1006.50 1005.78 1006.38 1006.32 1006.42 1004.05 1004.82 1005.87 1005.83 1005.79 1006.58 1006.88 1007.24 1007.81
1009.34 1009.10 1009.44 1010.04 1010.52 1011.37 1011.98 1012.87 1013.55 1014.10 1014.61 1014.76 1014.89 1013.98 1011.26 1010.44 1010.11 1009.04 1009.26 1009.08 1008.83 1009.75 1009.85 1010.14 1010.32 1009.49 1009.49 1008.97 1008.20 1007.58 1006.33 1005.79 1005.80 1006.26 1005.84 1005.87 1004.01 1004.22 1005.41 1005.88 1006.01 1006.74 1007.21 1007.73 1008.16
1009.03 1008.81 1008.41 1009.03 1009.85 1010.68 1011.67 1012.56 1013.43 1014.26 1014.70 1014.56 1014.25 1013.72 1010.70 1009.23 1008.63 1008.52 1008.52 1008.54 1008.40 1009.26 1009.56 1009.75 1009.60 1009.03 1008.60 1007.95 1006.56 1006.06 1006.10 1006.14 1005.63 1005.91 1006.07 1005.22 1004.62 1004.42 1004.60 1005.14 1005.99 1006.83 1007.53 1008.11 1008.68
1008.23 1008.31 1008.03 1008.06 1008.86 1010.12 1011.79 1012.88 1013.72 1013.69 1012.89 1011.34 1010.96 1009.78 1008.43 1008.42 1008.63 1008.11 1008.21 1008.10 1008.00 1008.25 1007.71 1008.42 1008.45 1007.12 1006.56 1006.82 1006.64 1006.83 1006.45 1005.86 1005.62 1006.19 1006.22 1005.35 1004.54 1004.18 1004.32 1004.97 1005.94 1006.73 1007.74 1008.62 1009.26
1007.84 1007.60 1007.93 1007.65 1007.71 1008.31 1009.74 1009.70 1009.65 1009.27 1010.36 1010.44 1010.08 1009.41 1008.69 1008.83 1007.96 1007.60 1007.50 1007.20 1007.01 1006.66 1006.83 1007.66 1006.49 1005.84 1006.39 1006.51 1007.02 1006.84 1006.60 1006.05 1005.87 1006.20 1006.36 1005.32 1004.38 1003.95 1004.18 1004.43 1005.26 1006.58 1007.80 1008.97 1009.70
1007.36 1007.30 1007.28 1007.41 1007.21 1007.57 1007.26 1007.79 1008.82 1009.26 1008.85 1007.33 1007.85 1007.55 1008.05 1008.35 1007.25 1006.38 1006.74 1006.13 1005.79 1005.71 1005.74 1004.92 1004.66 1005.69 1006.67 1006.65 1006.75 1006.52 1006.31 1006.19 1006.00 1006.07 1006.01 1005.50 1003.93 1002.91 1004.26 1005.84 1006.85 1007.66 1008.39 1009.11 1009.84
1006.76 1007.05 1006.73 1007.18 1007.54 1006.23 1006.55 1007.75 1008.32 1009.00 1008.87 1005.75 1005.61 1005.48 1006.74 1007.82 1005.88 1006.29 1005.95 1005.45 1005.34 1004.79 1005.35 1004.95 1004.68 1005.41 1006.02 1005.92 1006.45 1006.01 1006.16 1006.47 1006.26 1006.15 1004.76 1005.25 1002.63 1002.15 1004.47 1005.92 1007.05 1008.08 1008.77 1009.64 1010.34
1005.92 1006.33 1006.40 1006.99 1005.59 1005.45 1005.44 1007.28 1008.04 1009.40 1007.87 1004.64 1002.73 1003.20 1004.04 1004.61 1003.83 1004.03 1005.01 1005.31 1004.47 1004.58 1004.91 1003.85 1004.55 1004.95 1005.32 1005.45 1006.30 1005.82 1006.29 1006.75 1006.56 1005.99 1005.24 1004.28 1003.99 1001.83 1002.80 1005.26 1006.64 1007.81 1008.79 1009.78 1010.48
1004.96 1005.45 1006.00 1006.29 1005.55 1004.55 1005.06 1006.41 1007.31 1008.35 1005.10 1003.12 1002.20 1002.68 1002.94 1004.06 1003.60 1003.93 1004.07 1004.73 1004.52 1004.60 1004.51 1004.00 1004.85 1004.86 1004.79 1005.45 1006.15 1006.50 1007.06 1007.32 1007.15 1006.31 1004.10 1003.70 1003.20 1001.16 1001.59 1003.36 1005.96 1007.71 1008.90 1009.88 1010.65
1003.95 1004.45 1005.17 1005.39 1004.17 1004.01 1004.56 1005.40 1005.24 1003.98 1002.98 1001.81 1002.15 1002.27 1002.19 1002.18 1003.35 1003.37 1003.14 1003.16 1002.76 1003.49 1002.76 1004.26 1004.15 1004.90 1005.38 1005.63 1006.31 1006.71 1006.83 1006.54 1006.00 1005.09 1002.42 1002.73 1002.60 1001.57 1003.24 1003.58 1005.46 1007.33 1008.94 1010.19 1010.92
1003.01 1003.69 1003.60 1004.00 1004.19 1003.57 1003.13 1002.94 1001.16 1000.96 1000.64 999.97 1001.19 1001.45 1001.11 1001.61 1002.33 1002.53 1002.27 1001.83 1002.34 1001.79 1001.32 1002.49 1002.83 1003.83 1004.72 1004.43 1005.23 1005.73 1005.76 1005.87 1005.20 1003.69 1002.23 1003.10 1002.31 1002.00 1004.33 1005.20 1006.41 1007.97 1009.32 1010.38 1010.93
1002.12 1002.45 1002.47 1002.20 1003.11 1003.32 1001.17 999.13 998.34 998.33 998.47 999.37 1000.44 1000.49 1000.34 1000.92 1000.62 1001.59 1001.10 1000.73 1001.27 1001.58 1001.18 1001.08 1001.73 1002.90 1003.68 1004.40 1004.63 1005.99 1005.65 1006.48 1006.74 1005.88 1004.66 1002.28 1002.76 1004.66 1005.65 1006.57 1007.61 1008.65 1009.60 1010.34 1010.83
1000.76 1001.26 1000.20 1001.38 1002.07 1002.46 999.64 997.79 997.93 997.34 997.06 998.10 998.40 998.60 998.55 999.57 999.86 1000.29 1000.43 999.93 1000.64 1001.28 1001.46 1001.30 1002.15 1003.21 1004.18 1004.82 1004.29 1004.84 1006.23 1007.55 1008.02 1006.07 1004.02 1001.75 1001.90 1001.96 1005.06 1006.27 1007.56 1008.61 1009.39 1010.27 1010.63
999.86 999.67 998.37 1000.26 1001.72 1000.81 998.23 996.56 996.77 996.36 995.44 995.85 996.18 996.30 997.44 997.98 998.73 998.98 999.22 999.99 1000.18 1000.88 1001.62 1001.84 1001.91 1004.20 1004.61 1003.73 1003.25 1004.55 1005.31 1006.12 1006.29 1005.70 1003.91 1002.16 1001.63 1003.11 1003.84 1005.68 1007.16 1008.41 1009.62 1010.09 1010.43
998.09 997.46 997.45 999.04 1000.07 998.03 997.23 996.46 995.09 994.72 994.91 994.41 994.69 994.97 995.83 996.66 997.51 998.48 998.71 999.18 1000.28 1000.89 1001.24 1001.95 1002.30 1003.09 1003.66 1004.24 1004.27 1003.51 1003.86 1004.92 1004.96 1005.44 1004.83 1004.07 1003.18 1004.36 1004.30 1005.87 1007.36 1008.88 1009.71 1010.02 1010.42
996.61 996.88 997.17 997.61 997.31 996.45 996.49 995.93 994.37 993.07 992.98 993.21 993.21 993.65 994.95 996.15 997.48 997.86 998.84 1000.28 1000.41 1000.78 1001.41 1002.36 1002.99 1003.53 1004.24 1005.11 1005.18 1004.30 1003.91 1003.86 1004.74 1004.77 1003.43 1004.15 1003.56 1005.09 1005.63 1006.83 1008.09 1008.91 1009.27 1009.65 1009.85
995.82 995.92 996.98 996.31 995.61 995.63 994.92 994.83 993.78 991.96 991.82 992.11 991.66 993.43 994.60 996.09 996.85 997.74 999.00 1001.01 1001.11 1001.06 1002.34 1002.07 1002.44 1002.23 1001.81 1002.10 1002.72 1003.77 1003.35 1003.58 1003.83 1003.72 1003.01 1001.36 1003.23 1005.06 1005.93 1006.89 1008.00 1008.43 1008.83 1009.35 1009.60
993.69 993.52 993.60 993.81 994.10 994.78 994.61 994.24 993.22 991.44 991.33 991.42 991.87 992.94 993.43 995.65 996.87 997.48 998.61 1000.85 1001.67 1002.36 1002.77 1002.96 1002.68 1003.44 1003.77 1003.76 1003.62 1002.99 1002.86 1003.00 1002.70 1002.33 1002.24 1001.85 1002.12 1003.29 1005.21 1006.17 1006.89 1008.13 1008.70 1008.97 1009.25
992.05 992.69 993.47 993.09 993.39 994.08 993.73 992.76 992.41 991.14 990.45 990.84 990.90 992.19 993.19 994.28 994.01 996.01 997.82 1000.04 1001.59 1003.26 1003.32 1003.32 1003.78 1004.45 1004.34 1004.58 1004.83 1003.74 1002.84 1002.38 1002.47 1002.42 1001.91 1001.81 1001.74 1002.42 1003.99 1006.31 1007.32 1007.84 1008.33 1008.73 1009.00
991.31 991.91 991.92 991.83 991.93 992.58 991.99 991.48 991.45 990.79 990.61 990.50 990.54 992.70 994.28 995.47 996.59 998.02 998.76 1000.22 1001.30 1002.43 1003.28 1004.35 1005.09 1005.42 1005.32 1005.76 1005.93 1004.33 1002.18 1001.92 1002.01 1002.19 1001.82 1001.25 1001.84 1003.09 1005.05 1006.13 1006.92 1007.60 1008.02 1008.33 1008.59
Wind_Speed
16 15 14 13 12 11 10 8 8 7 5 8 10 12 15 16 18 10 7 5 1 1 3 2 6 4 6 6 7 4 7 9 8 8 3 6 4 2 6 8 4 3 4 4 5
18 18 17 15 13 12 11 9 8 7 5 7 10 11 14 15 11 14 6 4 2 5 4 2 6 6 9 8 7 11 9 8 3 6 7 3 7 5 6 6 4 2 2 3 7
20 19 18 17 15 14 12 10 9 7 7 5 8 11 14 12 11 3 7 5 4 7 3 2 3 7 11 7 9 10 14 6 8 9 10 10 11 6 10 11 5 5 2 4 8
21 20 19 18 17 15 13 11 10 8 7 5 7 11 14 6 5 6 6 3 4 4 5 6 5 7 9 11 10 11 12 9 8 6 10 11 8 11 12 13 11 9 5 7 9
22 21 21 20 18 16 14 13 10 9 6 4 7 10 7 7 12 10 3 5 6 3 5 7 7 6 11 6 8 13 10 8 10 9 12 11 13 14 15 15 14 11 10 9 10
22 21 21 21 19 17 16 14 12 10 7 3 6 9 4 12 2 5 5 6 8 4 5 7 4 4 4 8 10 3 7 9 9 12 14 15 16 5 5 4 8 6 6 5 9
24 23 22 21 20 18 16 15 13 11 9 4 2 3 7 20 2 4 5 7 7 7 9 9 6 8 4 6 4 8 13 13 14 14 10 6 11 13 6 0 3 3 3 5 9
25 24 23 23 20 19 17 15 13 12 9 5 2 3 10 5 7 10 14 15 14 10 10 4 6 5 7 1 5 9 7 12 5 7 6 8 7 10 7 1 3 2 2 3 7
16 24 23 23 21 19 17 14 12 11 6 5 3 7 12 3 7 12 16 10 10 9 11 5 9 8 7 11 10 11 12 10 6 6 6 12 3 11 11 4 3 3 4 3 4
19 19 23 23 22 20 17 15 13 11 3 3 3 5 10 7 6 6 11 11 6 14 11 9 10 11 12 12 13 13 13 6 12 7 8 10 13 9 12 8 5 4 5 6 6
17 17 20 23 23 21 19 12 7 6 8 11 13 15 1 9 4 11 8 11 10 14 11 16 13 18 24 21 17 6 9 13 6 6 9 12 18 16 11 9 9 7 8 7 8
16 16 17 23 25 29 19 16 20 3 9 19 19 23 15 0 5 11 11 15 14 16 16 11 20 22 14 15 16 14 13 16 11 8 10 14 17 19 18 14 10 10 9 9 9
18 16 17 18 25 22 24 32 16 18 9 14 33 34 22 18 9 17 14 12 18 21 22 21 10 18 14 14 15 16 16 14 14 7 13 18 23 25 3 5 7 8 10 11 11
18 17 13 10 14 15 22 24 10 9 7 16 20 17 32 18 24 25 19 11 12 20 18 17 14 13 19 18 15 16 15 16 15 11 11 3 9 7 14 12 13 13 13 13 12
20 18 13 16 1 15 13 20 12 6 6 7 26 11 20 29 10 25 29 21 20 13 17 13 16 21 19 17 16 11 4 10 11 14 15 18 12 14 12 13 16 16 16 14 10
21 18 14 11 12 9 19 19 7 8 12 9 11 20 20 28 22 6 19 19 14 25 21 20 7 14 18 15 16 1 8 6 7 10 17 18 17 14 15 18 19 17 17 15 11
22 19 15 10 5 13 20 16 11 11 9 12 13 19 24 18 25 19 22 29 20 22 30 23 24 11 8 11 12 17 13 6 11 11 14 3 12 15 5 4 20 20 18 13 9
23 20 17 12 9 14 18 16 14 13 24 10 16 24 22 20 22 20 20 23 29 24 14 24 18 27 18 22 12 23 19 9 10 14 14 9 11 5 8 9 17 17 16 12 7
23 15 15 14 13 12 18 23 13 22 29 18 21 21 16 22 13 20 22 22 24 22 16 17 17 1 11 21 19 12 22 14 11 11 8 11 8 7 12 15 16 16 15 8 5
14 14 19 16 15 12 16 21 16 19 27 23 18 16 19 25 16 22 20 17 18 26 13 10 6 6 10 7 23 14 10 7 5 7 10 10 16 7 19 19 18 16 12 7 4
14 13 14 18 12 12 11 12 13 28 27 28 22 15 22 27 20 21 15 5 21 24 20 9 4 8 9 13 18 17 14 9 7 9 6 11 5 9 18 19 20 15 7 4 2
15 17 12 17 16 14 16 7 18 31 32 24 23 19 27 25 23 20 19 14 14 16 18 11 4 10 15 4 6 21 23 22 8 8 9 8 5 2 8 17 16 11 4 2 1
14 14 9 18 17 20 24 19 24 33 34 29 24 23 19 19 12 19 18 5 16 18 18 14 7 5 6 6 7 12 16 23 19 4 18 10 4 5 13 15 13 7 2 0 3
11 10 7 14 20 25 30 14 10 29 34 29 21 23 21 17 12 20 18 8 10 12 5 14 10 14 13 8 7 21 21 21 24 14 13 24 12 13 15 16 13 5 2 2 4
12 7 12 12 15 28 24 11 17 14 20 26 20 29 23 13 22 14 24 9 7 8 7 11 14 15 18 6 8 13 23 24 29 27 21 15 21 13 17 18 11 3 2 3 4
9 5 4 15 27 22 29 32 24 20 21 28 21 30 29 21 25 21 18 12 12 13 13 9 9 14 20 13 9 13 17 23 26 25 28 25 20 0 10 5 7 3 4 4 5
6 7 3 9 21 20 24 17 27 26 23 31 30 24 24 15 10 3 14 13 12 14 13 11 9 8 7 10 7 17 22 21 20 23 23 24 18 7 10 8 6 5 3 4 3
Wind_Direction
217 219 221 222 225 214 223 226 242 268 302 315 327 329 326 325 312 254 285 58 31 310 204 204 202 188 208 197 222 237 245 243 237 228 146 157 273 117 309 285 353 22 0 40 124
219 219 215 219 216 221 215 223 239 253 280 312 323 329 321 324 302 288 105 141 237 260 223 216 212 207 214 220 207 225 236 257 244 257 266 286 283 315 278 256 197 166 165 146 160
220 217 219 212 212 212 213 206 236 250 275 309 322 323 315 310 290 143 132 154 213 256 176 199 208 233 240 220 207 214 247 258 231 250 268 275 275 268 268 256 234 272 298 184 185
215 216 216 214 209 209 206 202 220 236 259 305 323 320 314 276 288 130 141 184 196 251 183 163 193 207 238 220 220 248 242 261 255 262 256 264 292 266 263 271 283 273 302 267 219
217 212 210 214 208 204 199 197 205 220 243 289 317 321 299 240 252 131 166 153 194 170 241 196 209 228 238 234 229 237 255 254 252 241 252 268 257 267 279 272 274 285 272 252 237
212 214 213 210 208 203 197 195 187 207 222 258 314 311 265 259 312 231 216 191 200 197 242 221 215 190 263 244 244 12 259 250 255 251 253 255 261 236 233 335 273 248 263 281 267
215 209 207 210 205 199 195 192 176 194 201 207 279 289 241 246 283 210 195 227 218 260 249 229 200 199 157 227 259 269 268 255 250 249 243 234 232 218 187 301 159 11 356 4 356
218 212 207 203 203 200 189 184 174 183 190 185 211 234 256 258 258 255 244 248 241 238 208 254 217 227 222 203 213 252 246 257 134 200 171 223 255 162 148 121 173 342 56 50 50
272 216 207 203 196 191 178 173 169 164 149 156 210 237 265 135 226 246 224 232 204 196 196 197 210 221 183 224 241 211 257 214 181 229 245 225 268 172 194 314 287 201 157 114 77
270 256 205 199 195 182 162 146 136 121 169 166 273 240 235 228 190 209 179 188 160 148 147 168 197 201 217 210 228 239 227 215 252 165 219 227 244 229 225 246 273 207 156 138 94
253 261 233 197 189 167 133 122 142 202 200 198 177 226 334 217 232 214 190 175 158 185 182 184 205 206 209 212 236 274 269 267 222 256 288 259 266 263 254 239 211 202 175 138 101
273 249 258 209 190 166 170 202 193 83 221 220 245 220 239 179 211 205 174 188 190 203 195 173 223 223 220 209 223 223 250 260 273 275 254 268 264 271 265 268 247 195 168 141 127
268 265 246 231 192 170 185 197 199 233 261 203 216 224 218 225 231 197 195 199 203 209 195 214 203 223 189 193 208 222 236 253 262 252 260 263 271 252 131 155 160 165 145 141 127
258 263 249 240 195 182 203 181 175 176 263 244 195 230 218 231 246 226 199 196 204 216 208 232 208 198 199 206 206 229 223 250 260 267 270 143 283 177 162 162 171 159 155 142 133
246 253 248 212 196 195 169 171 124 79 222 231 211 164 185 198 143 207 212 219 219 197 190 196 203 201 210 207 194 246 181 237 258 265 273 252 253 253 177 180 175 164 154 146 134
231 239 244 255 242 212 157 148 112 144 215 228 149 183 172 201 218 163 192 213 230 231 222 243 184 219 229 228 196 111 177 210 242 253 248 244 242 250 214 200 173 164 159 150 135
229 224 233 222 233 169 158 160 183 198 141 192 186 174 186 181 202 193 186 191 191 200 220 218 229 211 200 170 197 196 179 223 224 210 252 306 223 244 101 167 169 165 155 147 135
226 222 227 229 233 207 171 190 205 176 185 144 168 182 190 166 203 197 191 196 211 215 211 217 219 211 198 212 185 202 195 210 252 250 257 132 236 201 98 143 154 154 153 145 130
217 224 225 217 213 242 186 206 189 176 189 162 168 171 191 182 178 190 206 207 202 206 218 201 222 202 194 211 200 200 219 228 266 282 271 234 169 148 148 147 157 159 158 148 127
212 221 225 212 201 221 234 198 182 189 176 165 182 182 181 186 184 190 191 206 203 201 220 198 163 189 158 203 224 179 185 163 215 215 240 232 237 255 176 173 169 164 164 158 149
203 219 217 202 193 226 228 207 179 200 179 175 182 169 189 184 193 190 188 177 191 189 202 182 206 151 171 208 181 197 200 203 200 231 262 272 257 5 176 176 175 162 165 164 194
199 219 186 177 204 217 220 217 186 185 191 191 192 178 184 179 181 181 204 204 190 168 194 193 195 184 200 118 289 214 206 200 190 170 238 285 253 357 158 171 170 158 164 147 273
199 213 198 185 202 216 216 217 211 181 187 183 193 184 176 176 174 192 198 135 163 169 173 172 190 172 194 201 215 231 216 219 223 249 220 214 146 127 143 159 170 179 122 162 344
178 199 216 205 211 219 200 215 222 192 187 189 174 177 157 179 184 188 172 176 176 163 193 183 186 232 238 279 186 209 214 215 211 225 221 229 221 174 182 180 187 196 213 293 306
180 203 184 185 205 211 221 200 191 184 191 186 174 183 166 176 194 185 183 129 166 152 182 210 237 236 252 241 249 223 215 211 217 224 222 245 237 200 199 198 194 215 257 308 301
164 170 167 208 205 214 222 210 200 187 177 191 175 188 186 193 191 186 158 160 163 184 178 188 229 227 232 212 250 236 235 216 226 233 245 249 254 19 164 161 199 215 244 251 284
163 241 199 180 221 194 213 207 202 186 193 191 183 172 192 192 164 107 170 168 151 172 170 154 167 180 225 193 242 262 225 224 220 230 235 236 237 182 186 205 206 232 216 269 295